This is the latest recevied weather packets stored in our database for station/object K4AGR-13. If no packets are shown the sender has not sent any weather packets the latest 10 day(s).
| Time | Temp. | Humidity | Pressure | Rain* | Wind** | Luminosity | Snow |
|---|---|---|---|---|---|---|---|
| 1777303850 | 22.22° C | 77% | 1019 hPa | 0 mm | - | 237 W/m² | - |
| 1777303245 | 21.67° C | 78% | 1018.8 hPa | 0 mm | - | 245 W/m² | - |
| 1777302943 | 21.67° C | 78% | 1018.8 hPa | 0 mm | - | 233 W/m² | - |
| 1777302639 | 21.67° C | 79% | 1018.7 hPa | 0 mm | - | 221 W/m² | - |
| 1777302338 | 21.67° C | 79% | 1018.7 hPa | 0 mm | - | 228 W/m² | - |
| 1777300522 | 21.11° C | 82% | 1018.5 hPa | 0 mm | - | 180 W/m² | - |
| 1777300219 | 21.11° C | 83% | 1018.4 hPa | 0 mm | - | 175 W/m² | - |
| 1777299914 | 20.56° C | 83% | 1018.4 hPa | 0 mm | - | 185 W/m² | - |
| 1777299612 | 20.56° C | 83% | 1018.2 hPa | 0 mm | - | 165 W/m² | - |
| 1777299310 | 20.56° C | 84% | 1018.2 hPa | 0 mm | - | 153 W/m² | - |
| 1777299007 | 20.56° C | 84% | 1018.3 hPa | 0 mm | - | 154 W/m² | - |
| 1777298705 | 20.56° C | 84% | 1018.3 hPa | 0 mm | - | 153 W/m² | - |
| 1777295946 | 20° C | 85% | 1017.7 hPa | 0 mm | - | 147 W/m² | - |
| 1777295644 | 20° C | 85% | 1017.6 hPa | 0 mm | - | 138 W/m² | - |
| 1777295341 | 20° C | 85% | 1017.8 hPa | 0 mm | - | 147 W/m² | - |
| 1777294736 | 20° C | 85% | 1017.7 hPa | 0 mm | - | 148 W/m² | - |
| 1777293221 | 20.56° C | 83% | 1017.4 hPa | 0 mm | - | 183 W/m² | - |
| 1777292920 | 20° C | 83% | 1017.2 hPa | 0 mm | - | 165 W/m² | - |
| 1777292616 | 20° C | 83% | 1017 hPa | 0 mm | - | 149 W/m² | - |
| 1777292312 | 20° C | 85% | 1017 hPa | 0 mm | - | 134 W/m² | - |
| 1777291705 | 19.44° C | 85% | 1016.7 hPa | 0 mm | - | 96 W/m² | - |
| 1777290493 | 19.44° C | 85% | 1016.5 hPa | 0 mm | - | 53 W/m² | - |
| 1777290188 | 18.89° C | 86% | 1016.3 hPa | 0 mm | - | 46 W/m² | - |
| 1777289276 | 18.89° C | 86% | 1016 hPa | 0 mm | - | 27 W/m² | - |
| 1777288974 | 18.33° C | 87% | 1015.8 hPa | 0 mm | - | 21 W/m² | - |
* Rain latest hour (hover to see other rain measurements)
** Current wind speed in m/s (hover to see current wind gust speed)